Weather History for KLHX - February, 2014

Change the Weather History Date:

Wednesday, February 5, 2014

  Actual Average Record
Temperature  
Mean Temperature -2 °F 32 °F  
Max Temperature 4 °F 46 °F 75 °F (1963)
Min Temperature -9 °F 19 °F -20 °F (1982)
Degree Days  
Heating Degree Days 67 33  
Month to date heating degree days 247 165  
Since 1 July heating degree days 3369 3422  
Cooling Degree Days 0 0  
Month to date cooling degree days 0 0  
Year to date cooling degree days 0 0  
Moisture  
Dew Point -8 °F    
Average Humidity 75    
Maximum Humidity 79    
Minimum Humidity 71    
Precipitation  
Precipitation T in 0.02 in 0.53 in (1974)
Month to date precipitation 0.07 0.06  
Year to date precipitation 0.16 0.35  
Sea Level Pressure  
Sea Level Pressure 30.61 in    
Wind  
Wind Speed 7 mph (East)    
Max Wind Speed 15 mph    
Max Gust Speed 16 mph    
Visibility 9 miles    
Events Snow    
T = Trace of Precipitation, MM = Missing Value Source: NWS Daily Summary

Daily Weather History Graph

Daily Weather History Graph

Search for Another Location

Airport or City:

Trip Planner

Search our weather history database for the weather conditions in past years. The results will help you decide how hot, cold, wet, or windy it might be!

Date:

Astronomy

Feb. 05, 2014 Rise Set
Actual Time 6:54 AM MST 5:21 PM MST
Civil Twilight 6:27 AM MST 5:49 PM MST
Nautical Twilight 5:56 AM MST 6:20 PM MST
Astronomical Twilight 5:25 AM MST 6:51 PM MST
Moon 10:17 AM MST (2/5) No Moon Set
Length of Visible Light 11h 21m
Length of Day
10h 26m
Waxing Crescent, 40% of the Moon is Illuminated
Feb 5
Waxing Crescent
Feb 6
First Quarter
Feb 14
Full
Feb 22
Last Quarter
Mar 1
New

Hourly Weather History & Observations

Time (MST) Temp. Windchill Dew Point Humidity Pressure Visibility Wind Dir Wind Speed Gust Speed Precip Events Conditions
12:53 AM 1.9 °F -11.8 °F -2.9 °F 80% 30.50 in 9.0 mi NNE 8.1 mph - 0.00 in Snow Light Snow
1:11 AM 1.0 °F -10.3 °F -4.0 °F 79% 30.33 in 5.0 mi North 5.8 mph - 0.00 in   Haze
1:25 AM -0.0 °F -13.0 °F -4.0 °F 83% 30.33 in 8.0 mi North 6.9 mph - 0.00 in   Mostly Cloudy
1:53 AM -0.0 °F -15.3 °F -5.1 °F 79% 30.53 in 10.0 mi NNE 9.2 mph - 0.00 in   Overcast
2:53 AM -2.9 °F -18.8 °F -8.0 °F 79% 30.56 in 10.0 mi NNE 9.2 mph - N/A   Overcast
3:53 AM -2.9 °F -18.8 °F -9.0 °F 75% 30.59 in 10.0 mi NNE 9.2 mph - N/A   Overcast
4:53 AM -6.0 °F -20.1 °F -11.9 °F 75% 30.63 in 10.0 mi NE 6.9 mph - N/A   Overcast
5:53 AM -6.0 °F -20.1 °F -11.9 °F 75% 30.64 in 10.0 mi NNE 6.9 mph - N/A   Overcast
6:53 AM -8.0 °F -25.0 °F -14.1 °F 75% 30.66 in 10.0 mi NNE 9.2 mph - N/A   Partly Cloudy
7:53 AM -8.0 °F -19.2 °F -13.0 °F 79% 30.69 in 10.0 mi ESE 4.6 mph - N/A   Partly Cloudy
8:53 AM -6.0 °F -14.7 °F -11.9 °F 75% 30.70 in 10.0 mi East 3.5 mph - N/A   Overcast
9:53 AM -2.9 °F -11.2 °F -9.9 °F 72% 30.71 in 7.0 mi ENE 3.5 mph - N/A   Overcast
10:53 AM -2.0 °F -12.2 °F -9.0 °F 72% 30.69 in 7.0 mi East 4.6 mph - N/A   Overcast
11:53 AM -0.0 °F -9.9 °F -7.1 °F 72% 30.67 in 10.0 mi SE 4.6 mph - N/A   Overcast
12:53 PM -0.9 °F -14.1 °F -8.0 °F 72% 30.64 in 10.0 mi SE 6.9 mph - N/A   Overcast
1:53 PM -0.9 °F -17.4 °F -8.0 °F 72% 30.63 in 10.0 mi SE 10.4 mph - N/A   Overcast
2:53 PM -0.9 °F -17.4 °F -8.0 °F 72% 30.65 in 10.0 mi SE 10.4 mph - N/A   Overcast
3:53 PM -0.9 °F -16.4 °F -7.1 °F 75% 30.65 in 9.0 mi ESE 9.2 mph - N/A   Overcast
4:53 PM -0.0 °F -15.3 °F -7.1 °F 72% 30.65 in 10.0 mi East 9.2 mph - N/A   Overcast
5:53 PM -0.9 °F -14.1 °F -7.1 °F 75% 30.66 in 10.0 mi ESE 6.9 mph - N/A   Overcast
6:53 PM -0.0 °F -9.9 °F -7.1 °F 72% 30.66 in 10.0 mi ESE 4.6 mph - N/A   Overcast
7:53 PM -0.0 °F -9.9 °F -7.1 °F 72% 30.66 in 10.0 mi East 4.6 mph - N/A   Overcast
8:53 PM -0.0 °F -11.6 °F -6.0 °F 76% 30.66 in 10.0 mi ESE 5.8 mph - N/A   Overcast
9:53 PM -0.0 °F -11.6 °F -6.0 °F 76% 30.63 in 10.0 mi East 5.8 mph - N/A   Overcast
10:53 PM -0.0 °F -13.0 °F -5.1 °F 79% 30.62 in 10.0 mi ESE 6.9 mph - N/A   Overcast
11:53 PM -0.0 °F -14.2 °F -5.1 °F 79% 30.58 in 10.0 mi East 8.1 mph - N/A   Overcast